User: anonymous   Login
Location: Unspecified
(0.0000°N, 0.0000°E)
Time: 23:28:28
(UTC+00:00)
Language:

Hubble Space Telescope - Orbit

View from above orbital plane
View from above orbital plane
View from above satellite
View from above satellite

Ground track
Ground track

The orbit data is extracted from the following two-line orbital elements,

1 20580U 90037B   14351.19335061  .00003461  00000-0  21733-3 0  1801
2 20580 028.4708 273.3983 0003182 082.5179 043.6597 15.06436202152334
Epoch (UTC): 17 December 2014 04:38:25
Eccentricity: 0.0003182
inclination: 28.4708°
perigee height: 545 km
apogee height: 549 km
right ascension of ascending node: 273.3983°
argument of perigee: 82.5179°
revolutions per day: 15.06436202
mean anomaly at epoch: 43.6597°
orbit number at epoch: 15233

The dashed part of the orbit path shows where the satellite is in the earth's shadow,  

DLR